Preview of NWS' New Version of Forecast
This preview is not operational and should not be used for support decisions.

Regional Weather Roundup (RWR)

Issued by National Weather Service (NWS)

                            
000
ASUS45 KBOU 181810
RWRCO 

WEATHER ROUNDUP FOR COLORADO
NATIONAL WEATHER SERVICE DENVER/BOULDER CO
1200 PM MDT THU APR 18 2019

NOTE: "FAIR" INDICATES FEW OR NO CLOUDS BELOW 12000 FEET WITH NO
SIGNIFICANT WEATHER AND/OR OBSTRUCTIONS TO VISIBILITY.

COZ001>005-013-030-031-181900-
...NORTHWEST COLORADO...
  
CITY           SKY/WX    TMP DP  RH WIND       PRES   REMARKS
CRAIG          FAIR      54  29  38 NW15      30.33S                  
HAYDEN         PTSUNNY   49  29  46 W12       30.35R                  
MEEKER         FAIR      54  25  32 VRB3      30.33S                  
RANGELY        FAIR      56  31  38 S6        30.33S                  
RABBIT EARS PA NOT AVBL                                               
STEAMBOAT SPGS CLOUDY    43  28  55 SW14G20   30.33S                  
WALDEN         FAIR      43  23  45 N15G21    30.32S                  
$$

COZ006>008-011-181900-
...WEST CENTRAL VALLEYS...
  
CITY           SKY/WX    TMP DP  RH WIND       PRES   REMARKS
GRAND JUNCTION FAIR      61  29  29 VRB5      30.31F                  
MONTROSE       FAIR      56  23  27 VRB3      30.34F                  
EAGLE          FAIR      55  25  31 VRB7G17   30.31F                  
RIFLE          FAIR      60  27  28 NW13      30.30F                  
DELTA          FAIR      61  25  25 W5        30.32F                  
NUCLA          FAIR      59  23  25 NW10      30.34F                  
$$

COZ017>023-064>068-181900-
...SOUTHWEST COLORADO...
  
CITY           SKY/WX    TMP DP  RH WIND       PRES   REMARKS
DURANGO        FAIR      63  18  17 SW12G18   30.22F                  
CORTEZ         FAIR      63  22  20 NW10G24   30.26S                  
PAGOSA SPRINGS FAIR      60  11  14 SE8       30.25F                  
TELLURIDE      FAIR      45  18  33 W7        30.39S                  
WOLF CREEK PAS FAIR      34  10  37 NW13G30   30.44S WCI  25          
$$

COZ009-010-012-014-032>034-037-058>063-181900-
...CENTRAL COLORADO...
  
CITY           SKY/WX    TMP DP  RH WIND       PRES   REMARKS
ASPEN          PTSUNNY   48  22  35 VRB3G20   30.32F                  
BUENA VISTA    FAIR      53  15  22 N23G38    30.24S                  
COPPER MTN       N/A     28  23  80 NW25G37   30.37R WCI  14          
BERTHOUD PASS  CLOUDY    18   9  68 NW41G59   30.28R WCI  -5          
COTTONWOOD PAS FAIR      45  10  24 NW12G29   30.28S                  
GUNNISON       FAIR      50  20  30 N9        30.32F                  
GRANBY         CLOUDY    44  24  45 W20G25    30.30S                  
KREMMLING      FAIR      48  23  37 NW15G25   30.32S                  
LEADVILLE      CLOUDY    34  21  59 W14       30.34R WCI  25          
MONARCH PASS   FAIR      32  12  43 NW21G39   30.47F WCI  20          
SALIDA         FAIR      54  15  21 NW7G20    30.31S                  
SUNLIGHT       PTSUNNY   32  23  69 W8G20     30.45S WCI  25          
WILKERSON PASS FAIR      34  18  51 N12G29    30.33S WCI  25          
$$

COZ069>075-181900-
...SAN LUIS VALLEY/SANGRE DE CRISTO MOUNTAINS...
  
CITY           SKY/WX    TMP DP  RH WIND       PRES   REMARKS
ALAMOSA        FAIR      56  10  16 NW9G31    30.24F                  
DEL NORTE      FAIR      54  14  20 N13G30    30.26F                  
LA VETA PASS   NOT AVBL                                               
SAGUACHE       FAIR      54  19  26 N16G33    30.26S                  
$$

COZ035-036-038>040-181900-
...NORTHERN COLORADO FRONT RANGE...
  
CITY           SKY/WX    TMP DP  RH WIND       PRES   REMARKS
DENVER INTL AP PTSUNNY   51  33  50 NW9G21    30.22F                  
AURORA         PTSUNNY   48  34  59 NE13      30.22F                  
FRONT RANGE AP PTSUNNY   48  37  66 NE8       30.24S                  
ERIE MUNI ARPT FAIR      53  28  37 NE8       30.27S                  
BOULDER MUN AP FAIR      50  32  50 SE3       30.22S                  
CENTENNIAL     PTSUNNY   47  34  60 NE8G20    30.23S                  
BROOMFIELD     PTSUNNY   50  32  50 N6        30.23F                  
FORT COLLINS   FAIR      58  27  30 N30G38    30.18                   
LONGMONT       FAIR      58  31  36 N5        30.22F                  
$$

COZ041-046-047-076>085-087-088-181900-
...PIKES PEAK/PALMER DIVIDE AND SOUTHERN FOOTHILLS...
  
CITY           SKY/WX    TMP DP  RH WIND       PRES   REMARKS
COLO. SPRINGS  PTSUNNY   50  32  50 NE13G25   30.22R                  
A. F. ACADEMY  FAIR      50  32  50 NE16G25   30.19F                  
SCHRIEVER AFB  NOT AVBL                                               
CHEYENNE MTN   PTSUNNY   44  32  63 E8        30.18R                  
ELLICOTT         N/A    N/A N/A N/A NE24G31   30.21S                  
FALCON         FAIR      46  29  52 N17G25    30.24S                  
FORT CARSON    FAIR      53  33  46 NE17      30.21R                  
LIMON          PTSUNNY   47  37  68 N23G37    30.21F                  
MONUMENT HILL  CLOUDY    36  32  87 NE12G20   30.26S                  
CANON CITY     NOT AVBL                                               
WALSENBURG     NOT AVBL                                               
TRINIDAD       FAIR      61  32  33 MISG      30.17F                  
$$

COZ042>045-048>051-090-091-181900-
...NORTHEAST COLORADO...
  
CITY           SKY/WX    TMP DP  RH WIND       PRES   REMARKS
GREELEY ARPT   PTSUNNY   53  30  41 N20G26    30.20F                  
AKRON          PTSUNNY   52  29  41 N30G44    30.16F                  
BURLINGTON     FAIR      56  26  31 N29G47    30.13F                  
WRAY           PTSUNNY   54  32  43 N25G36    30.12S                  
YUMA           NOT AVBL                                               
STERLING       CLOUDY    52  30  43 N30G43    30.15S                  
HOLYOKE        FAIR      59  32  36 NW29G37   30.11F                  
FORT MORGAN    NOT AVBL                                               
$$

COZ086-089-092>099-181900-
...SOUTHEAST COLORADO...
  
CITY           SKY/WX    TMP DP  RH WIND       PRES   REMARKS
PUEBLO         FAIR      60  34  37 NE9G22    30.16F                  
LA JUNTA       CLOUDY    56  34  43 N15       30.19R                  
LAMAR          CLOUDY    55  32  41 N18G33    30.17S                  
SPRINGFIELD      N/A     52  36  54 N24G36    30.17R                  
$$